Regional Weather Roundup
Issued by NWS Jackson, KY

Home | Current Version | Previous Version | Text Only | Print | Product List | Glossary Off
Versions: 1 2 3 4 5 6 7 8 9 10 11 12 13 14 15 16 17 18 19 20 21 22 23 24 25 26 27

000
ASUS43 KJKL 230910
RWRJKL

EAST KENTUCKY HOURLY WEATHER ROUNDUP
NATIONAL WEATHER SERVICE JACKSON KY
500 AM EDT SUN APR 23 2017

NOTE: "FAIR" INDICATES FEW OR NO CLOUDS BELOW 12,000 FEET WITH
NO SIGNIFICANT WEATHER AND/OR OBSTRUCTIONS TO VISIBILITY.

* THESE REPORTS ARE NOT UNDER NWS QUALITY CONTROL AND MAY NOT
  REPORT WEATHER SUCH AS PRECIPITATION AND FOG.

KYZ079-080-083-085-087-088-110-112-115-119-120-231000
...EASTERN KENTUCKY...

CITY           SKY/WX    TMP DP  RH WIND       PRES   REMARKS
JACKSON        CLOUDY    47  42  83 VRB3      29.94F
LONDON         LGT RAIN  48  43  82 NE8G17    29.91F
SOMERSET*      DRIZZLE   46  46 100 E7        29.90F
MONTICELLO*    CLOUDY    48  47  96 VRB5      29.90F
WILLIAMSBURG*  CLOUDY    48  48 100 NE8       29.89S
MIDDLESBORO*   CLOUDY    52  50  93 CALM      29.89S
HARLAN APT*    CLOUDY    50  46  87 CALM      29.90F
PIKE CO APT*   CLOUDY    46  46 100 NE5       29.95F
BIG SANDY APT* CLOUDY    47  46  95 NE5       29.95F
MOREHEAD APT*  SUNNY     45  37  76 NE8G15    29.98F
ASHLAND*       CLEAR     45  39  81 CALM      30.00R
$$

KYZ035-036-041-042-044-050-067-078-099-231000
...CENTRAL KENTUCKY...

CITY           SKY/WX    TMP DP  RH WIND       PRES   REMARKS
MT STERLING*   PTCLDY    43  41  93 E6        29.98F
FLEMING/MASON* CLEAR     42  37  83 NE10      30.01S
DANVILLE*      MOCLDY    46  41  81 E12G18    29.93F
LEXINGTON      CLOUDY    45  38  76 E9        29.98R
FRANKFORT      PTCLDY    46  37  71 NE8       29.96F
LOUISVILLE     PTCLDY    48  38  68 NE7       29.97S
LEBANON*       PTSUNNY   48  41  76 NE7       29.92F
GLASGOW*       LGT RAIN  48  45  88 E10G17    29.89R
BOWLING GREEN  CLOUDY    50  47  89 NE7       29.89F
$$

KYZ091>093-OHZ055-061-077-WVZ005-015-034-035-042-231000
...SOUTHERN OHIO/WEST VIRGINIA...

CITY           SKY/WX    TMP DP  RH WIND       PRES   REMARKS
COVINGTON      CLOUDY    45  35  68 NE16      30.03R
COLUMBUS       CLEAR     40  35  83 N3        30.07S
DAYTON         CLEAR     36  32  85 NE8       30.08S WCI  30
WILMINGTON     CLEAR     39  36  89 NE10      30.04F WCI  32
HUNTINGTON     CLEAR     44  40  85 NE5       29.99S
CHARLESTON     CLOUDY    46  42  86 NE6       29.99F
PINEVILLE*     CLOUDY    50  49  96 MISG      30.00F
BECKLEY        CLOUDY    47  44  90 E10       29.98R
BLUEFIELD      CLOUDY    46  44  93 E7        29.98R FOG
LOGAN CO APT*  CLOUDY    46  45  93 NE8       29.95F
$$

VAZ002-007-008-TNZ017-027-036-066-071-231000
...SOUTHWEST VIRGINIA/EAST TENNESSEE...

CITY           SKY/WX    TMP DP  RH WIND       PRES   REMARKS
WISE*          FOG       46  46 100 CALM      29.94S VSB<1/4
JONESVILLE*    CLOUDY    54  50  87 E6        29.89F
ABINGDON*      CLOUDY    57  56  96 E10       29.89F
BRISTOL        CLOUDY    56  54  93 N3        29.88S
MORRISTOWN*    CLOUDY    57  55  94 E5        29.83F
SEVIERVILLE*   PTSUNNY   55  55 100 CALM      29.82F
KNOXVILLE      RAIN      58  56  93 N7        29.82S FOG
LAFOLLETTE*    CLOUDY    52  50  93 CALM      29.89S
OAK RIDGE      RAIN      54  52  93 VRB3      29.85S FOG
CROSSVILLE     LGT RAIN  49  49 100 NE10      29.82F VSB 1/2
NASHVILLE      DRIZZLE   51  49  92 NE9       29.85S FOG
$$

...KEY TO REMARKS...
VSB - VISIBILITY IN MILES
WCI - WIND CHILL INDEX
HX  - HEAT INDEX

$$




USA.gov is the U.S. government's official web portal to all federal, state and local government web resources and services.